TimeCDT,TemperatureF,Dew PointF,Humidity,Sea Level PressureIn,VisibilityMPH,Wind Direction,Wind SpeedMPH,Gust SpeedMPH,PrecipitationIn,Events,Conditions,WindDirDegrees,DateUTC
12:13 AM,35.6,33.8,93,29.86,10.0,Calm,Calm,-,N/A,,Clear,0,2012-10-01 05:13:00
12:33 AM,35.6,32.0,87,29.85,10.0,Calm,Calm,-,N/A,,Clear,0,2012-10-01 05:33:00
12:53 AM,35.6,32.0,87,29.85,10.0,Calm,Calm,-,N/A,,Clear,0,2012-10-01 05:53:00
1:13 AM,35.6,32.0,87,29.85,10.0,Calm,Calm,-,N/A,,Clear,0,2012-10-01 06:13:00
1:33 AM,35.6,32.0,87,29.85,10.0,Calm,Calm,-,N/A,,Clear,0,2012-10-01 06:33:00
1:53 AM,35.6,30.2,81,29.84,10.0,Calm,Calm,-,N/A,,Clear,0,2012-10-01 06:53:00
2:33 AM,33.8,30.2,87,29.83,10.0,Calm,Calm,-,N/A,,Clear,0,2012-10-01 07:33:00
2:53 AM,33.8,30.2,87,29.82,10.0,Calm,Calm,-,N/A,,Clear,0,2012-10-01 07:53:00
3:13 AM,33.8,30.2,87,29.82,10.0,Calm,Calm,-,N/A,,Clear,0,2012-10-01 08:13:00
3:33 AM,33.8,30.2,87,29.82,10.0,Calm,Calm,-,N/A,,Clear,0,2012-10-01 08:33:00
3:53 AM,33.8,30.2,87,29.81,10.0,Calm,Calm,-,N/A,,Clear,0,2012-10-01 08:53:00
4:13 AM,32.0,28.4,87,29.82,10.0,Calm,Calm,-,N/A,,Mostly Cloudy,0,2012-10-01 09:13:00
4:33 AM,33.8,30.2,87,29.82,10.0,Calm,Calm,-,N/A,,Overcast,0,2012-10-01 09:33:00
4:53 AM,33.8,30.2,87,29.81,10.0,Calm,Calm,-,N/A,,Overcast,0,2012-10-01 09:53:00
5:12 AM,35.6,32.0,87,29.81,0.5,Calm,Calm,-,N/A,Fog,Fog,0,2012-10-01 10:12:00
5:33 AM,-9999,-9999,N/A,-9999,0.2,Calm,Calm,-,N/A,Fog,Fog,0,2012-10-01 10:33:00
5:53 AM,37.4,33.8,87,29.81,0.2,Calm,Calm,-,N/A,Fog,Fog,0,2012-10-01 10:53:00
6:13 AM,35.6,33.8,93,29.80,1.0,Calm,Calm,-,N/A,,Mostly Cloudy,0,2012-10-01 11:13:00
6:33 AM,35.6,33.8,93,29.80,1.5,Calm,Calm,-,N/A,,Mostly Cloudy,0,2012-10-01 11:33:00
6:53 AM,35.6,32.0,87,29.80,1.2,Calm,Calm,-,N/A,,Mostly Cloudy,0,2012-10-01 11:53:00
7:13 AM,35.6,32.0,87,29.80,7.0,Calm,Calm,-,N/A,,Clear,0,2012-10-01 12:13:00
7:33 AM,35.6,32.0,87,29.81,5.0,Calm,Calm,-,N/A,,Clear,0,2012-10-01 12:33:00
7:53 AM,35.6,33.8,93,29.81,10.0,Calm,Calm,-,N/A,,Clear,0,2012-10-01 12:53:00
8:13 AM,39.2,35.6,87,29.81,10.0,Calm,Calm,-,N/A,,Clear,0,2012-10-01 13:13:00
8:33 AM,44.6,42.8,93,29.81,10.0,NNW,9.2,-,N/A,,Clear,340,2012-10-01 13:33:00
9:14 AM,57.2,46.4,67,29.82,10.0,North,4.6,-,N/A,,Clear,350,2012-10-01 14:14:00
9:33 AM,60.8,44.6,55,-9999,10.0,North,4.6,-,N/A,,Clear,350,2012-10-01 14:33:00
9:53 AM,62.6,44.6,52,29.81,10.0,Calm,Calm,-,N/A,,Clear,350,2012-10-01 14:53:00
10:13 AM,62.6,44.6,52,29.82,10.0,Calm,Calm,-,N/A,,Clear,340,2012-10-01 15:13:00
10:33 AM,62.6,44.6,52,29.83,10.0,NNW,8.1,-,N/A,,Clear,340,2012-10-01 15:33:00
10:53 AM,62.6,44.6,52,29.83,10.0,NW,8.1,-,N/A,,Clear,320,2012-10-01 15:53:00
11:13 AM,62.6,44.6,52,29.84,10.0,NNW,8.1,-,N/A,,Clear,330,2012-10-01 16:13:00
11:33 AM,60.8,44.6,55,29.83,10.0,NNW,8.1,-,N/A,,Clear,330,2012-10-01 16:33:00
11:53 AM,60.8,44.6,55,29.83,10.0,NNW,6.9,16.1,N/A,,Clear,340,2012-10-01 16:53:00
12:13 PM,60.8,44.6,55,29.84,10.0,North,9.2,18.4,N/A,,Clear,360,2012-10-01 17:13:00
12:33 PM,62.6,44.6,52,29.84,10.0,NNW,8.1,16.1,N/A,,Clear,340,2012-10-01 17:33:00
12:53 PM,64.4,44.6,49,29.84,10.0,NNW,8.1,17.3,N/A,,Clear,330,2012-10-01 17:53:00
1:13 PM,64.4,44.6,49,29.85,10.0,NW,9.2,16.1,N/A,,Clear,310,2012-10-01 18:13:00
1:33 PM,64.4,44.6,49,29.85,10.0,North,8.1,-,N/A,,Clear,10,2012-10-01 18:33:00
1:53 PM,64.4,44.6,49,29.85,10.0,NNW,5.8,-,N/A,,Clear,340,2012-10-01 18:53:00
2:13 PM,64.4,44.6,49,29.85,10.0,North,8.1,-,N/A,,Clear,350,2012-10-01 19:13:00
2:33 PM,62.6,44.6,52,29.85,10.0,NNW,11.5,18.4,N/A,,Clear,330,2012-10-01 19:33:00
2:53 PM,62.6,42.8,48,29.86,10.0,NNW,5.8,-,N/A,,Clear,340,2012-10-01 19:53:00
3:13 PM,64.4,41.0,42,29.85,10.0,North,9.2,16.1,N/A,,Clear,350,2012-10-01 20:13:00
3:33 PM,64.4,39.2,40,29.85,10.0,North,9.2,-,N/A,,Clear,350,2012-10-01 20:33:00
3:53 PM,64.4,39.2,40,29.86,10.0,North,5.8,-,N/A,,Clear,350,2012-10-01 20:53:00
4:13 PM,64.4,37.4,37,29.85,10.0,North,9.2,16.1,N/A,,Clear,350,2012-10-01 21:13:00
4:33 PM,66.2,35.6,32,29.85,10.0,NNW,8.1,-,N/A,,Clear,330,2012-10-01 21:33:00
4:54 PM,66.2,35.6,32,29.86,10.0,NW,5.8,-,N/A,,Clear,320,2012-10-01 21:54:00
5:13 PM,66.2,33.8,30,29.86,10.0,NNW,8.1,-,N/A,,Scattered Clouds,340,2012-10-01 22:13:00
5:33 PM,64.4,32.0,30,29.87,10.0,NNW,6.9,-,N/A,,Scattered Clouds,330,2012-10-01 22:33:00
5:53 PM,64.4,32.0,30,29.88,10.0,NNW,6.9,-,N/A,,Clear,330,2012-10-01 22:53:00
6:13 PM,62.6,33.8,34,29.88,10.0,North,4.6,-,N/A,,Clear,350,2012-10-01 23:13:00
6:33 PM,60.8,33.8,36,29.89,10.0,Calm,Calm,-,N/A,,Clear,0,2012-10-01 23:33:00
6:54 PM,59.0,33.8,39,29.90,-9999.0,Calm,Calm,-,N/A,,Clear,0,2012-10-01 23:54:00
7:13 PM,55.4,33.8,44,29.91,10.0,Calm,Calm,-,N/A,,Clear,0,2012-10-02 00:13:00
7:33 PM,53.6,33.8,47,29.91,10.0,Calm,Calm,-,N/A,,Clear,0,2012-10-02 00:33:00
7:53 PM,51.8,33.8,50,29.92,10.0,Calm,Calm,-,N/A,,Clear,0,2012-10-02 00:53:00
8:13 PM,48.2,33.8,58,29.92,10.0,Calm,Calm,-,N/A,,Clear,0,2012-10-02 01:13:00
8:33 PM,46.4,33.8,62,29.93,-9999.0,Calm,Calm,-,N/A,,Clear,0,2012-10-02 01:33:00
8:53 PM,46.4,32.0,57,29.92,10.0,Calm,Calm,-,N/A,,Clear,0,2012-10-02 01:53:00
9:13 PM,46.4,33.8,62,29.93,10.0,Calm,Calm,-,N/A,,Clear,0,2012-10-02 02:13:00
9:33 PM,44.6,32.0,61,29.93,10.0,NNW,3.5,-,N/A,,Clear,330,2012-10-02 02:33:00
9:53 PM,46.4,32.0,57,29.93,10.0,Calm,Calm,-,N/A,,Clear,0,2012-10-02 02:53:00
10:13 PM,39.2,30.2,70,29.93,10.0,Calm,Calm,-,N/A,,Clear,0,2012-10-02 03:13:00
10:33 PM,37.4,30.2,75,29.94,10.0,Calm,Calm,-,N/A,,Clear,0,2012-10-02 03:33:00
10:53 PM,35.6,30.2,81,29.93,10.0,Calm,Calm,-,N/A,,Clear,0,2012-10-02 03:53:00
11:13 PM,35.6,30.2,81,29.94,10.0,Calm,Calm,-,N/A,,Clear,0,2012-10-02 04:13:00
11:33 PM,33.8,30.2,87,29.94,10.0,Calm,Calm,-,N/A,,Clear,0,2012-10-02 04:33:00
11:53 PM,33.8,30.2,87,29.94,10.0,Calm,Calm,-,N/A,,Clear,0,2012-10-02 04:53:00